• Processing (Info)

  • MPEC 2004-G05 : 2004 FN32

    The following Minor Planet Electronic Circular may be linked-to from your own Web pages, but must not otherwise be redistributed electronically.

    A form allowing access to any MPEC is at the bottom of this page.


    Read MPEC 2004-G04 Read MPEC 2004-G06


    M.P.E.C. 2004-G05                                Issued 2004 Apr. 1, 21:43 UT
    
         The Minor Planet Electronic Circulars contain information on unusual
             minor planets and routine data on comets.  They are published
       on behalf of Commission 20 of the International Astronomical Union by the
              Minor Planet Center, Smithsonian Astrophysical Observatory,
                              Cambridge, MA 02138, U.S.A.
    
             Supported in part by the Steven and Michele Kirsch Foundation
                 Prepared using the Tamkin Foundation Computer Network
    
                                  MPC@CFA.HARVARD.EDU
              URL http://cfa-www.harvard.edu/iau/mpc.html  ISSN 1523-6714
    
                                       2004 FN32
    
    Observations:
         K04F32N* C2004 03 31.42173 14 18 16.04 -03 38 10.1          20.2 V EG005691
         K04F32N  C2004 03 31.44849 14 18 13.41 -03 37 13.2          20.1 V EG005691
         K04F32N  C2004 03 31.47517 14 18 10.80 -03 36 16.9          20.0 V EG005691
         K04F32N  C2004 04 01.22717 14 16 59.81 -03 09 24.5          19.9 R EG005649
         K04F32N  C2004 04 01.22895 14 16 59.64 -03 09 21.2          19.9 R EG005649
         K04F32N  C2004 04 01.24138 14 16 58.38 -03 08 53.7          20.3 R EG005649
         K04F32N  C2004 04 01.24316 14 16 58.22 -03 08 50.3          19.5 R EG005649
         K04F32N  C2004 04 01.25540 14 16 57.17 -03 08 21.7          20.1 V EG005291
         K04F32N  C2004 04 01.26271 14 16 56.43 -03 08 05.7          20.0 V EG005291
         K04F32N  C2004 04 01.27037 14 16 55.65 -03 07 49.2          20.1 V EG005291
         K04F32N  C2004 04 01.37799 14 16 44.60 -03 03 54.4          19.3 R EG005926
         K04F32N  C2004 04 01.38025 14 16 44.36 -03 03 49.7          19.1 R EG005926
         K04F32N 1C2004 04 01.78259 14 16 03.75 -02 48 49.3          19.5 R EG005413
         K04F32N 1C2004 04 01.78918 14 16 03.11 -02 48 34.3          19.5 R EG005413
    
    Observer details:
    291 LPL/Spacewatch II.  Observer T. H. Bressi.  1.8-m f/2.7 reflector + CCD.
    413 Siding Spring.  Observer R. H. McNaught.  1.0-m f/8 reflector + CCD.
    649 Powell Observatory, Louisburg.  Observer R. Fredrick.  0.75-m Newtonian
        + CCD.
    691 Steward Observatory, Kitt Peak.  Observer J. A. Larsen.  0.9-m f/3
        reflector + CCD.
    926 Tenagra II Observatory.  Observers P. R. Holvorcem, M. Schwartz.  0.81-m
        f/7 Ritchey-Chretien + CCD.
    
    Orbital elements:
    2004 FN32
    Epoch 2004 Mar. 16.0 TT = JDT 2453080.5                 MPC
    M 265.68517              (2000.0)            P               Q
    n   0.73709554     Peri.  160.77930     +0.98336147     +0.16902734
    a   1.2137247      Node   190.20131     -0.17125457     +0.98479182
    e   0.6837052      Incl.   22.07420     +0.06059786     +0.04018504
    P   1.34           H   19.2           G   0.15
    From 14 observations 2004 Mar. 31-Apr. 1.
    
    Ephemeris:
    2004 FN32                a,e,i = 1.21, 0.68, 22                  q = 0.3839
    Date    TT    R. A. (2000) Decl.     Delta      r     Elong.  Phase     V
    2004 03 26    14 25.47   -06 31.1    0.701    1.637   148.6    18.5    20.4
    2004 04 05    14 10.21   -00 43.4    0.585    1.565   161.0    12.0    19.7
    2004 04 15    13 45.56   +07 12.5    0.498    1.487   162.8    11.5    19.3
    2004 04 25    13 11.14   +16 43.5    0.446    1.400   146.6    23.3    19.3
    2004 05 05    12 29.67   +26 07.0    0.429    1.306   125.7    38.8    19.5
    2004 05 15    11 46.18   +33 42.2    0.437    1.203   105.4    54.1    19.8
    2004 05 25    11 04.80   +39 05.8    0.456    1.090    87.2    68.1    20.1
    2004 06 04    10 25.09   +42 53.9    0.477    0.968    70.7    81.6    20.4
    
    Timothy B. Spahr             (C) Copyright 2004 MPC           M.P.E.C. 2004-G05
    

    Read MPEC 2004-G04 Read MPEC 2004-G06


    MPEC number:

    Enter an MPEC number in one of the following forms:

    • 1997-B01 (the full form)
    • J97B01 (the packed version of the full form)
    • B01 (the abbreviated form)